Location: Aldenham
(51.6667°N, 0.3500°W)
Time: 18:02:52
(UTC+00:00)

Explorer 7 - Pass Details

Date: 22 February 2026
Orbit: 430 x 542 km, 50.2° (Epoch: 8 March)

Event Time Altitude Azimuth Distance (km) Brightness Sun altitude
Rises 19:39:15 0° 276° (W) 2,524 11.8 -20.8°
Reaches altitude 10° 19:42:26 10° 246° (WSW) 1,671 10.0 -21.3°
Maximum altitude 19:44:05 13° 220° (SW) 1,531 9.4 -21.6°
Drops below altitude 10° 19:45:46 10° 194° (SSW) 1,698 9.3 -21.8°
Enters shadow 19:46:10 - 189° (S) 1,776 9.4 -21.9°
Sets 19:49:04 0° 165° (SSE) 2,608 - -22.3°
